Time,TemperatureF,DewpointF,PressureIn,WindDirection,WindDirectionDegrees,WindSpeedMPH,WindSpeedGustMPH,Humidity,HourlyPrecipIn,Conditions,Clouds,dailyrainin,SoftwareType,DateUTC
2013-02-13 01:01:00,32.0,30.0,-100.00,North,10,1.0,2.0,92,-99.99,,,-99.99,,2013-02-13 09:01:00,
2013-02-13 02:01:00,33.0,30.0,-100.00,SSE,160,2.0,3.0,88,-99.99,,,-99.99,,2013-02-13 10:01:00,
2013-02-13 03:01:00,32.0,30.0,-100.00,SW,225,2.0,3.0,92,-99.99,,,-99.99,,2013-02-13 11:01:00,
2013-02-13 03:11:00,32.0,30.0,-100.00,SW,225,2.0,3.0,92,-99.99,,,-99.99,,2013-02-13 11:11:00,
2013-02-13 04:02:00,31.0,29.0,-100.00,NNE,15,2.0,3.0,92,-99.99,,,-99.99,,2013-02-13 12:02:00,
2013-02-13 05:02:00,30.0,28.0,-100.00,NE,45,0.0,2.0,92,-99.99,,,-99.99,,2013-02-13 13:02:00,
2013-02-13 06:01:00,30.0,28.0,-100.00,North,5,1.0,2.0,92,-99.99,,,-99.99,,2013-02-13 14:01:00,
2013-02-13 07:01:00,30.0,29.0,-100.00,SSW,195,1.0,2.0,96,-99.99,,,-99.99,,2013-02-13 15:01:00,
2013-02-13 08:01:00,31.0,29.0,-100.00,NE,50,0.0,2.0,92,-99.99,,,-99.99,,2013-02-13 16:01:00,
2013-02-13 09:01:00,31.0,29.0,-100.00,NNE,20,0.0,2.0,92,-99.99,,,-99.99,,2013-02-13 17:01:00,
2013-02-13 10:01:00,34.0,32.0,-100.00,SSE,155,0.0,1.0,92,-99.99,,,-99.99,,2013-02-13 18:01:00,
2013-02-13 10:10:00,43.0,35.0,-100.00,NNE,25,1.0,3.0,73,-99.99,,,-99.99,,2013-02-13 18:10:00,
2013-02-13 11:01:00,43.0,35.0,-100.00,NNE,25,1.0,3.0,73,-99.99,,,-99.99,,2013-02-13 19:01:00,
2013-02-13 12:10:00,55.0,26.0,-100.00,ESE,120,6.0,17.0,32,-99.99,,,-99.99,,2013-02-13 20:10:00,
2013-02-13 13:00:00,56.0,25.0,-100.00,East,95,7.0,18.0,29,-99.99,,,-99.99,,2013-02-13 21:00:00,
2013-02-13 13:01:00,55.0,26.0,-100.00,ESE,120,6.0,17.0,32,-99.99,,,-99.99,,2013-02-13 21:01:00,
2013-02-13 14:10:00,55.0,26.0,-100.00,SE,130,7.0,16.0,32,-99.99,,,-99.99,,2013-02-13 22:10:00,
2013-02-13 15:01:00,55.0,26.0,-100.00,SE,130,7.0,16.0,32,-99.99,,,-99.99,,2013-02-13 23:01:00,
2013-02-13 16:10:00,54.0,25.0,-100.00,East,100,6.0,15.0,32,-99.99,,,-99.99,,2013-02-14 00:10:00,
2013-02-13 17:01:00,54.0,25.0,-100.00,East,100,6.0,15.0,32,-99.99,,,-99.99,,2013-02-14 01:01:00,
2013-02-13 18:01:00,49.0,25.0,-100.00,ESE,115,2.0,12.0,38,-99.99,,,-99.99,,2013-02-14 02:01:00,
2013-02-13 18:11:00,49.0,25.0,-100.00,ESE,115,2.0,12.0,38,-99.99,,,-99.99,,2013-02-14 02:11:00,
2013-02-13 19:02:00,49.0,25.0,-100.00,SE,125,3.0,12.0,38,-99.99,,,-99.99,,2013-02-14 03:02:00,
2013-02-13 20:01:00,46.0,27.0,-100.00,South,175,5.0,9.0,47,-99.99,,,-99.99,,2013-02-14 04:01:00,
2013-02-13 20:11:00,46.0,27.0,-100.00,South,175,5.0,9.0,47,-99.99,,,-99.99,,2013-02-14 04:11:00,
2013-02-13 21:01:00,44.0,27.0,-100.00,SE,140,3.0,7.0,50,-99.99,,,-99.99,,2013-02-14 05:01:00,
2013-02-13 22:02:00,41.0,29.0,-100.00,SSE,165,2.0,6.0,62,-99.99,,,-99.99,,2013-02-14 06:02:00,
2013-02-13 22:11:00,41.0,29.0,-100.00,SSE,165,2.0,6.0,62,-99.99,,,-99.99,,2013-02-14 06:11:00,
2013-02-13 23:01:00,38.0,28.0,-100.00,NNE,15,0.0,6.0,66,-99.99,,,-99.99,,2013-02-14 07:01:00,